Regional Weather Roundup
Issued by NWS

Home | Current Version | Previous Version | Graphics & Text | Print | Product List | Glossary On
Versions: 1 2 3 4 5 6 7 8 9 10 11 12 13 14 15 16 17 18 19 20 21 22 23 24 25 26 27 28 29 30 31 32 33 34 35 36 37 38 39 40 41 42 43 44 45 46 47 48 49 50
000
ASUS43 KLOT 070413
RWRIL

ILLINOIS REGIONAL WEATHER ROUNDUP
NATIONAL WEATHER SERVICE CHICAGO/ROMEOVILLE IL
1100 PM CDT MON JUL 06 2015

NOTE: "FAIR" INDICATES FEW OR NO CLOUDS BELOW 12,000 FEET WITH NO
SIGNIFICANT WEATHER AND/OR OBSTRUCTIONS TO VISIBILITY.

* THESE STATIONS ARE NOT UNDER NWS QUALITY CONTROL. THEY ALSO MAY NOT
  REPORT WEATHER SUCH AS PRECIPITATION OR FOG.

ILZ001-002-007-009-015-016-024-070500-
NORTHWEST ILLINOIS

CITY           SKY/WX    TMP DP  RH WIND       PRES   REMARKS
MOLINE         LGT RAIN  72  69  90 SW7       29.86F FOG
STERLING*      CLOUDY    72  70  94 W16G22    29.86F
SAVANNA*       CLOUDY    72  69  92 SW6       29.86S
$$

ILZ003-004-008-010-011-017-018-070500-
NORTH CENTRAL ILLINOIS

CITY           SKY/WX    TMP DP  RH WIND       PRES   REMARKS
ROCKFORD       LGT RAIN  72  69  90 SW9       29.87F
FREEPORT*      CLOUDY    70  69  97 SW7       29.87F
ROCHELLE*      DRIZZLE   71  69  95 SW8       29.88S
DE KALB*       CLOUDY    69  67  94 SW6       29.89F
PERU*          LGT RAIN  72  69  92 CALM      29.87F
$$

ILZ005-006-012>014-019>023-070500-
NORTHEAST ILLINOIS

CITY           SKY/WX    TMP DP  RH WIND       PRES   REMARKS
CHICAGO-OHARE  LGT RAIN  71  68  90 W14       29.86R
CHICAGO-MIDWAY LGT RAIN  74  68  81 S7        29.85F
AURORA         LGT RAIN  72  69  90 NW3       29.88S
LANSING*       CLOUDY    74  66  77 SW7       29.87F
JOLIET*        CLOUDY    73  71  96 CALM      29.87S
WAUKEGAN       HVY RAIN  70  69  97 SW22G31   29.87R FOG
DUPAGE AIRPORT RAIN      71  69  93 W7        29.88S
KANKAKEE*      CLOUDY    77  72  84 S12       29.87F
WHEELING       LGT RAIN  72  67  84 W9G21     29.87S
MORRIS*        HVY RAIN  73  71  91 NW12      29.86R
ROMEOVILLE*    LGT RAIN  71  70  97 W6        29.87R
NORTHERLY ISL    N/A     73  67  81 S9          N/A
$$

LMZ740>746-070500-
SOUTHERN LAKE MICHIGAN

STATION/POSITION SKY/WX   TEMP    WIND        PRES    VSBY  WAVE
                          AIR SEA DIR/SP/G                  HT/PER
                          (F)     (DEG/KT/KT) (MB)    (MI)  (FT/S)
HARRISON CRIB              72     240/ 20/ 24   N/A
BURNHAM HARBOR             73     190/  7/ 12   N/A
CALUMET HARBOR             74     260/  5/ 11   N/A
BURNS HARBOR               76     190/ 11/ 15 1012.2R
MICHIGAN CITY              76     160/ 12/ 16   N/A
MICHIGAN CITY 6N           75 68  220/ 12/ 16   N/A           1
ST. JOSEPH                 74 67  210/ 16/ 19   N/A           2/ 3
$$

ILZ025>027-034>036-040-047-049-050-058-095>099-070500-
WEST-CENTRAL ILLINOIS

CITY           SKY/WX    TMP DP  RH WIND       PRES   REMARKS
QUINCY         LGT RAIN  74  71  91 E7        29.88F
GALESBURG*     LGT RAIN  71  69  96 CALM      29.88F
MACOMB*        HVY RAIN  71  71  99 W6        29.92R
JACKSONVILLE*  CLOUDY    80  74  81 S9        29.87F HX  84
PITTSFIELD*    RAIN      80  73  81 S7        29.88S HX  83
$$

ILZ028>032-037-038-041>044-048-051>054-059>061-070500-
CENTRAL ILLINOIS

CITY           SKY/WX    TMP DP  RH WIND       PRES   REMARKS
PONTIAC        CLOUDY    79  74  84 S13G18    29.87F HX  82
BLOOMINGTON    CLOUDY    76  73  90 S13       29.90F
DECATUR        CLOUDY    76  73  91 S9        29.90F
PEORIA         LGT RAIN  74  70  87 W6        29.87F
LACON*         LGT RAIN  71  69  93 CALM      29.87F
LINCOLN*       CLOUDY    78  72  83 S9        29.88F
SPRINGFIELD    CLOUDY    80  71  74 S14       29.88F HX  84
TAYLORVILLE    CLOUDY    75  72  88 S9        29.90F
$$

ILZ033-039-045-046-055>057-062-063-070500-
EAST-CENTRAL ILLINOIS

CITY           SKY/WX    TMP DP  RH WIND       PRES   REMARKS
CHAMPAIGN      CLOUDY    74  71  91 S8        29.91F
DANVILLE*      CLOUDY    74  68  82 S8        29.89F
RANTOUL*       CLOUDY    76  71  86 S7        29.91F
MATTOON        CLOUDY    76  73  91 S8        29.92F
PARIS*         MOCLDY    73  72  95 S6        29.94F
$$

ILZ079-100>102-070500-
SOUTHWEST ILLINOIS

CITY           SKY/WX    TMP DP  RH WIND       PRES   REMARKS
ALTON          CLOUDY    78  78 100 S9        29.91F HX  80
BELLEVILLE     CLOUDY    79  78  96 S8        29.91S HX  82
CAHOKIA*       CLOUDY    80  74  81 S6        29.91F HX  85
SPARTA*        MOCLDY    78  74  86 S8        29.95F HX  80
$$

ILZ064>066-069>071-074>076-080>082-084>086-088>090-092>094-070500-
SOUTH-CENTRAL ILLINOIS

CITY           SKY/WX    TMP DP  RH WIND       PRES   REMARKS
CARBONDALE     PTCLDY    78  74  87 S6        29.97R HX  81
CAIRO*         MOCLDY    78  74  86 S7        29.99S HX  81
EFFINGHAM*     CLOUDY    77  72  84 SE6       29.94F
MARION         PTCLDY    79  75  89 S8        29.98S HX  82
MT. VERNON     MOCLDY    79  72  78 S8        29.96F HX  82
CENTRALIA*     CLOUDY    78  71  80 S12       29.94F HX  80
SALEM*         CLOUDY    80  74  82 S8        29.94F HX  84
$$

ILZ067-068-072-073-078-083-087-091-070500-
SOUTHEAST ILLINOIS

CITY           SKY/WX    TMP DP  RH WIND       PRES   REMARKS
LAWRENCEVILLE  CLEAR     76  73  91 S6        29.97F
FLORA*         CLEAR     77  73  87 S9        29.95F
FAIRFIELD*     MOCLDY    78  74  87 S10       29.94F HX  81
HARRISBURG*    PTCLDY    77  75  94 S3        29.99S
ROBINSON*      PTCLDY    77  73  88 S6        29.96F
CARMI*         PTCLDY    76  70  80 S7        29.97S
$$

ABBREVIATIONS USED IN REMARKS
   TC - TEMPERATURE IN CELSIUS
  WCI - WIND CHILL INDEX
   HX - HEAT INDEX
  VSB - VISIBILITY
$$




USA.gov is the U.S. government's official web portal to all federal, state and local government web resources and services.